Probability
19 26 32 35 39 42 42 42 42 42 42 39 39 42 42 42 45 45 48 45 45 48 39 42 39 42 45 42 42 48 42 45 42 42 45 45 58 55 58 58 52 52 55
13 19 35 32 35 29 32 35 39 39 39 42 39 35 32 32 29 32 35 32 35 26 26 29 35 32 39 45 42 45 42 35 45 42 48 52 55 55 52 55 45 45 58
10 16 23 29 29 26 26 29 29 29 35 35 35 29 26 26 26 29 29 26 26 23 26 29 29 32 29 32 32 39 39 35 35 35 45 35 48 68 61 48 55 52 61
10 13 16 29 19 19 23 26 29 32 32 35 26 23 16 16 19 19 23 23 23 23 26 26 29 32 32 32 39 32 35 32 35 42 35 39 32 58 58 52 42 48 52
6 6 13 19 19 23 19 23 26 29 23 23 23 19 19 19 16 19 16 19 23 23 26 26 26 23 23 29 32 29 29 39 45 42 32 29 23 45 45 42 42 48 52
6 3 3 13 13 6 13 10 10 16 16 19 23 19 19 19 23 26 23 23 23 23 23 29 29 29 23 19 26 26 29 32 32 35 29 32 32 48 39 42 45 48 55
3 3 3 10 6 6 0 0 3 10 13 19 19 13 16 16 19 19 16 19 23 23 29 29 32 29 26 26 19 26 26 32 23 29 23 32 35 48 42 42 39 45 45
3 3 3 10 6 0 0 0 0 6 10 6 10 10 16 19 19 19 19 19 23 19 23 26 29 29 29 29 32 19 23 29 16 26 23 29 48 45 42 42 35 35 35
3 3 3 0 0 0 0 0 0 3 3 3 3 10 13 19 23 23 23 26 26 26 23 23 26 29 32 23 16 13 19 45 16 16 16 32 48 45 39 42 42 39 39
3 3 3 0 0 0 0 0 0 0 3 3 3 3 6 13 19 19 23 23 16 16 13 13 16 23 19 16 13 13 16 26 6 6 13 32 48 42 39 45 45 39 35
3 3 3 0 0 0 0 0 0 0 0 0 0 3 3 3 3 3 16 16 19 16 10 10 13 16 6 13 10 19 19 3 0 6 13 39 45 39 45 42 42 39 39
3 3 0 0 0 0 0 0 0 0 0 0 0 0 3 3 3 3 13 16 16 16 10 10 13 13 10 6 6 10 3 0 0 3 16 48 39 42 39 35 32 35 35
0 0 0 0 0 0 0 0 0 0 0 0 0 0 0 3 3 3 3 10 10 10 6 6 10 6 0 0 0 3 0 0 0 3 19 45 39 42 35 29 35 32 29
0 0 0 0 0 0 0 0 0 0 0 0 0 0 0 0 0 0 3 3 3 3 3 0 0 0 0 0 0 0 0 0 3 10 23 42 42 42 39 32 32 39 39
0 0 0 0 0 0 0 0 0 0 0 0 0 0 0 0 0 0 0 3 3 0 0 0 0 0 0 0 0 0 0 0 6 3 10 35 52 39 39 32 35 45 39
0 0 0 0 0 0 0 0 0 0 0 0 0 0 0 0 0 0 0 0 0 0 0 0 3 3 0 0 0 0 3 0 0 3 3 16 29 35 39 35 42 39 35
0 0 0 0 0 0 0 0 0 0 0 0 0 0 0 0 0 0 0 0 0 0 0 0 3 3 0 0 0 0 0 3 3 3 0 3 10 16 26 29 32 26 19
0 0 0 0 0 0 0 0 0 0 0 0 0 0 0 0 0 0 3 3 3 0 0 0 3 0 0 0 0 0 0 0 0 0 0 3 3 6 13 13 16 19 23
0 0 0 0 0 0 0 0 0 0 0 0 0 0 0 0 0 0 3 0 0 0 0 0 0 0 0 0 0 0 0 0 0 0 0 0 3 3 3 6 10 10 16
0 0 0 0 0 0 0 0 0 0 0 0 0 0 0 0 0 3 0 0 3 0 0 0 3 0 0 0 0 0 0 0 0 0 0 0 0 0 3 3 3 6 10
0 0 0 0 0 0 0 0 0 0 0 0 0 0 0 0 0 3 0 3 3 3 0 3 0 0 0 0 0 0 0 0 0 0 0 0 0 0 0 3 3 3 3
0 0 0 0 0 0 0 0 0 0 0 0 0 0 0 0 0 0 0 0 0 3 3 3 3 0 0 0 0 0 0 0 0 0 0 0 0 0 0 0 0 3 3
0 0 0 0 0 0 0 0 0 0 0 0 0 0 0 0 0 0 0 0 0 0 0 3 3 0 0 0 0 0 0 0 0 0 0 0 0 0 0 0 0 0 3
0 0 0 0 0 0 0 0 0 0 0 0 0 0 0 0 3 0 0 0 0 0 0 0 0 0 0 0 0 0 0 0 0 0 0 0 0 0 0 0 0 3 0
0 0 0 0 0 0 0 0 0 0 0 0 0 0 0 0 3 0 0 0 0 0 0 0 0 0 0 0 0 0 0 0 0 0 0 0 0 0 0 0 0 0 0
0 0 0 0 0 0 0 0 0 0 0 0 0 0 0 0 0 0 0 0 0 0 0 0 0 0 0 0 0 0 0 0 0 0 0 0 0 0 0 0 0 0 0
Height
5887 5887 5886 5886 5885 5884 5884 5883 5882 5881 5880 5880 5879 5878 5878 5877 5876 5876 5876 5876 5876 5876 5876 5877 5877 5877 5878 5879 5880 5881 5882 5883 5884 5885 5887 5888 5889 5890 5892 5893 5894 5895 5896
5888 5887 5886 5886 5885 5885 5884 5883 5882 5881 5880 5880 5879 5878 5878 5877 5876 5876 5875 5875 5875 5876 5876 5876 5876 5877 5877 5878 5879 5880 5881 5882 5884 5885 5886 5887 5889 5890 5891 5892 5894 5895 5896
5888 5887 5887 5886 5886 5885 5884 5883 5882 5881 5880 5880 5879 5878 5878 5877 5876 5876 5875 5875 5875 5875 5875 5875 5875 5876 5877 5877 5878 5879 5880 5882 5883 5884 5885 5887 5888 5889 5891 5892 5893 5894 5895
5888 5887 5887 5886 5886 5885 5884 5883 5882 5881 5880 5880 5879 5878 5877 5877 5876 5875 5875 5874 5874 5874 5874 5874 5875 5875 5876 5876 5877 5878 5879 5881 5882 5884 5885 5886 5887 5889 5890 5891 5892 5893 5895
5888 5887 5887 5887 5886 5885 5884 5883 5882 5881 5880 5880 5879 5878 5877 5876 5875 5875 5874 5874 5873 5873 5873 5873 5874 5874 5875 5875 5876 5877 5879 5880 5881 5882 5884 5886 5887 5888 5889 5891 5892 5893 5894
5888 5887 5887 5887 5886 5885 5885 5884 5883 5882 5881 5879 5879 5878 5877 5876 5875 5874 5873 5873 5872 5872 5872 5872 5872 5873 5873 5874 5875 5876 5877 5879 5880 5882 5883 5885 5887 5888 5889 5890 5891 5893 5894
5888 5888 5887 5887 5886 5886 5885 5884 5883 5882 5880 5879 5878 5877 5876 5875 5874 5873 5872 5872 5871 5871 5870 5870 5871 5871 5872 5873 5874 5875 5876 5878 5879 5881 5883 5884 5886 5887 5889 5890 5891 5893 5894
5888 5888 5887 5887 5887 5886 5885 5884 5883 5882 5880 5879 5878 5877 5876 5874 5873 5872 5871 5870 5870 5869 5869 5869 5869 5870 5871 5872 5873 5874 5875 5877 5879 5880 5882 5884 5885 5887 5889 5890 5891 5893 5894
5888 5888 5888 5887 5887 5886 5885 5884 5883 5882 5881 5879 5878 5876 5875 5874 5872 5871 5870 5869 5868 5867 5867 5867 5868 5868 5869 5870 5871 5873 5874 5876 5878 5879 5881 5883 5885 5887 5888 5889 5891 5892 5894
5888 5888 5888 5887 5887 5886 5885 5884 5883 5882 5881 5879 5878 5876 5875 5873 5872 5870 5869 5868 5867 5866 5866 5866 5866 5867 5868 5869 5870 5871 5873 5875 5876 5879 5881 5882 5884 5886 5888 5889 5890 5892 5893
5888 5888 5888 5887 5887 5886 5886 5885 5884 5882 5881 5880 5878 5876 5875 5873 5871 5870 5868 5867 5866 5865 5865 5865 5865 5866 5866 5867 5869 5870 5872 5874 5876 5878 5880 5882 5883 5885 5887 5889 5890 5891 5893
5888 5888 5887 5887 5887 5887 5886 5885 5884 5883 5881 5880 5878 5877 5875 5873 5871 5869 5868 5866 5865 5864 5863 5863 5863 5864 5865 5866 5868 5869 5871 5873 5875 5877 5879 5881 5883 5884 5886 5888 5889 5890 5892
5887 5887 5887 5887 5887 5887 5886 5885 5884 5883 5882 5880 5879 5877 5875 5873 5871 5869 5867 5865 5864 5863 5862 5862 5862 5863 5864 5865 5867 5869 5870 5872 5874 5876 5878 5880 5882 5884 5885 5887 5888 5890 5891
5887 5887 5888 5888 5887 5887 5886 5886 5885 5883 5882 5881 5879 5877 5875 5873 5872 5870 5868 5866 5864 5863 5862 5861 5861 5862 5863 5864 5866 5868 5870 5872 5874 5876 5878 5879 5881 5883 5884 5886 5887 5889 5890
5887 5887 5888 5888 5888 5887 5887 5886 5885 5884 5883 5881 5880 5878 5876 5874 5872 5870 5868 5866 5864 5863 5862 5861 5861 5862 5863 5864 5866 5867 5869 5871 5873 5875 5877 5878 5880 5882 5883 5885 5886 5887 5889
5886 5887 5888 5888 5888 5887 5887 5886 5885 5884 5883 5882 5880 5878 5876 5874 5872 5871 5869 5867 5865 5863 5862 5862 5862 5862 5863 5864 5866 5867 5869 5871 5873 5874 5876 5878 5879 5881 5883 5884 5885 5887 5888
5886 5887 5887 5888 5888 5887 5887 5887 5886 5885 5884 5882 5881 5879 5877 5875 5873 5871 5869 5868 5866 5864 5863 5863 5863 5863 5864 5865 5866 5867 5869 5870 5872 5874 5875 5877 5879 5880 5882 5883 5884 5886 5887
5885 5886 5887 5887 5887 5887 5887 5887 5886 5885 5884 5883 5881 5880 5878 5876 5874 5872 5870 5869 5867 5866 5865 5864 5864 5864 5864 5865 5866 5867 5868 5870 5871 5873 5875 5877 5878 5880 5881 5882 5884 5885 5886
5885 5885 5886 5887 5887 5887 5887 5887 5887 5886 5885 5884 5882 5881 5879 5877 5875 5873 5872 5870 5869 5868 5867 5866 5866 5865 5865 5866 5867 5867 5868 5870 5871 5873 5874 5876 5878 5879 5881 5882 5883 5884 5886
5884 5885 5885 5886 5887 5887 5887 5888 5887 5886 5885 5884 5883 5881 5880 5878 5876 5875 5873 5872 5871 5869 5868 5868 5867 5867 5867 5867 5868 5868 5869 5870 5871 5873 5874 5876 5878 5879 5880 5881 5883 5884 5885
5883 5884 5885 5885 5886 5887 5887 5888 5887 5887 5886 5885 5884 5882 5881 5879 5877 5876 5875 5874 5873 5871 5870 5870 5869 5869 5868 5868 5869 5869 5870 5871 5872 5873 5875 5876 5878 5879 5880 5881 5882 5883 5884
5881 5882 5883 5885 5886 5887 5887 5887 5887 5887 5886 5885 5884 5883 5882 5880 5879 5877 5876 5875 5874 5873 5873 5872 5871 5871 5870 5870 5870 5870 5871 5873 5873 5874 5875 5877 5878 5879 5880 5881 5881 5882 5883
5879 5881 5882 5884 5885 5886 5887 5887 5887 5887 5887 5886 5885 5884 5883 5882 5880 5879 5878 5877 5876 5875 5874 5874 5873 5872 5872 5871 5871 5871 5872 5873 5874 5875 5876 5877 5878 5879 5880 5880 5881 5882 5882
5878 5879 5881 5883 5884 5885 5886 5887 5887 5887 5887 5886 5886 5885 5884 5883 5882 5881 5880 5879 5878 5877 5876 5875 5875 5874 5873 5872 5872 5872 5872 5873 5874 5875 5876 5877 5878 5879 5879 5880 5881 5881 5882
5877 5878 5880 5881 5883 5884 5885 5886 5886 5886 5887 5886 5886 5885 5885 5884 5883 5882 5881 5881 5880 5879 5878 5877 5876 5875 5874 5873 5873 5873 5873 5874 5875 5876 5877 5878 5878 5878 5879 5880 5880 5881 5881
5875 5877 5878 5880 5881 5883 5884 5885 5886 5886 5886 5887 5886 5886 5885 5885 5884 5884 5883 5882 5882 5881 5880 5879 5878 5877 5876 5875 5874 5874 5874 5875 5876 5877 5877 5877 5878 5878 5879 5879 5879 5880 5880
Wind_Speed
3 3 3 4 4 5 5 5 5 5 5 5 5 5 4 4 3 3 3 2 2 2 3 3 4 6 6 7 8 9 9 8 8 8 8 8 8 8 7 7 8 8 7
2 2 3 3 4 5 5 6 6 6 5 5 5 5 5 4 4 3 3 3 3 2 3 4 4 6 6 7 8 9 9 9 9 9 9 9 8 7 7 8 8 8 8
2 2 3 3 4 5 5 6 6 6 6 6 6 6 6 5 5 4 3 3 3 3 3 4 4 5 6 7 8 9 9 10 9 9 9 9 8 8 7 8 8 9 9
2 2 2 3 4 5 5 6 6 6 6 6 6 6 6 6 5 5 4 3 4 4 4 4 4 5 6 6 8 9 9 10 10 10 10 9 9 8 7 7 8 9 10
2 2 2 3 4 4 5 6 6 6 6 7 6 6 7 6 6 6 5 4 4 4 4 4 4 5 6 7 7 9 9 9 10 11 10 10 9 8 7 7 8 9 9
2 1 2 3 3 4 5 6 6 6 7 7 7 7 7 7 7 6 6 5 5 4 4 4 5 5 6 6 8 8 9 9 10 11 10 9 9 8 7 8 8 9 10
1 1 2 2 4 4 5 6 6 7 7 8 7 7 7 7 7 6 6 5 5 5 5 5 5 5 6 6 7 9 9 9 9 10 10 9 9 9 8 8 8 9 10
1 1 2 2 4 5 5 6 6 7 7 8 8 8 8 7 7 7 6 6 5 5 5 5 5 5 6 7 8 8 9 9 9 10 10 9 9 9 9 8 8 8 9
1 1 1 2 4 5 5 6 6 7 8 8 9 9 8 8 8 7 7 6 5 4 4 4 4 5 6 7 8 9 9 9 10 10 10 9 9 9 9 8 8 9 9
1 1 1 2 3 4 5 5 6 7 8 9 9 9 9 8 8 8 7 6 5 4 3 3 4 5 6 7 8 8 9 10 10 10 9 9 9 9 9 9 9 9 9
1 1 1 2 3 3 4 5 6 7 8 9 9 9 9 9 9 8 8 7 5 3 3 3 4 4 6 7 8 8 9 9 10 10 10 10 10 10 9 9 9 9 9
2 1 1 2 2 3 4 5 6 7 8 8 9 9 10 9 9 9 9 7 5 4 3 3 4 4 5 6 7 8 8 9 9 9 9 9 9 10 9 9 10 9 9
3 2 1 1 2 3 4 5 6 7 8 8 10 10 10 10 10 10 9 8 6 4 3 3 4 5 5 6 7 8 8 8 9 9 9 9 9 9 10 9 10 9 9
4 2 1 1 2 3 4 5 6 7 8 9 10 10 10 10 10 10 10 9 8 6 4 2 2 4 5 6 7 7 7 7 8 8 8 9 9 10 10 9 9 9 9
4 3 1 0 1 2 3 5 6 7 8 9 10 10 10 10 10 11 11 10 9 6 5 3 1 2 4 5 6 7 7 7 8 8 8 8 9 9 10 9 9 9 9
5 4 2 1 1 2 3 5 6 7 8 9 9 10 10 10 10 11 11 10 9 7 5 4 2 1 3 4 5 6 6 7 7 8 8 8 9 9 9 9 8 8 8
5 4 3 2 1 1 3 4 6 7 8 9 9 10 10 10 10 11 11 11 9 8 6 5 4 2 2 3 4 5 6 6 7 8 8 8 8 8 8 8 8 8 8
6 5 4 2 1 1 2 4 5 6 7 8 9 9 10 10 10 10 11 11 10 9 7 6 5 4 3 3 3 4 5 6 7 8 8 8 8 7 7 7 7 7 8
6 6 4 3 2 1 1 3 4 5 7 7 8 9 10 10 10 10 11 11 10 9 8 7 6 5 5 4 3 4 5 5 6 6 7 7 7 7 6 7 7 7 7
8 6 5 4 3 2 1 2 3 5 6 7 8 8 9 10 10 10 10 11 10 9 9 8 7 6 5 5 4 4 4 4 5 5 6 6 6 6 6 6 6 7 6
8 7 6 5 4 3 2 2 3 4 5 6 7 8 8 9 9 9 10 10 10 10 9 8 7 7 6 5 5 4 3 3 4 4 4 4 4 5 5 5 6 6 6
8 7 7 6 5 3 2 2 2 3 4 5 6 7 8 8 9 9 9 9 9 9 9 8 8 7 6 5 4 4 3 3 3 3 3 3 3 4 4 4 5 5 5
9 8 8 7 5 4 3 2 2 2 3 4 5 6 7 7 8 8 8 8 8 9 9 8 8 7 7 6 4 4 3 3 3 3 3 2 2 2 2 2 3 3 4
10 9 8 7 6 5 4 3 3 2 2 3 4 5 5 6 7 8 8 8 8 8 8 8 7 7 7 6 5 4 3 3 2 2 2 2 1 1 1 1 2 2 2
10 9 8 9 7 6 5 4 3 2 1 2 3 4 4 4 5 6 7 7 7 7 7 8 7 6 6 6 5 4 3 2 2 1 1 1 1 1 2 2 2 2 3
9 9 9 9 8 7 6 5 4 3 2 1 1 3 3 3 4 5 6 6 6 7 7 7 7 7 6 5 4 4 3 2 2 1 1 1 1 2 2 2 3 3 4
Wind_Direction
14 14 20 28 34 31 30 28 24 19 17 14 12 11 9 357 340 332 329 319 279 244 244 240 232 228 224 220 217 211 209 203 200 196 196 196 199 201 198 194 192 189 184
357 10 20 30 37 32 29 25 15 10 10 13 12 9 4 356 345 330 321 304 283 273 261 251 240 231 227 225 218 216 212 208 203 199 197 197 198 203 199 193 194 195 188
360 3 9 27 31 24 21 18 8 5 10 12 12 10 7 360 350 341 326 301 284 275 264 253 242 230 225 224 222 218 213 209 206 204 201 199 199 205 208 201 198 194 193
341 345 359 10 18 16 11 9 7 5 9 11 11 8 4 358 354 349 338 314 293 282 273 257 243 233 224 222 221 219 213 211 208 207 207 205 203 205 209 203 200 194 192
321 337 356 4 9 11 9 11 11 12 13 12 10 4 358 355 353 347 337 321 301 285 275 259 246 237 227 224 222 220 215 211 209 208 209 206 203 203 203 202 199 193 190
306 340 2 8 18 19 17 15 15 13 8 9 5 1 357 354 352 346 336 323 307 289 278 262 249 240 230 225 222 218 213 209 208 208 210 209 205 204 203 200 195 191 191
295 330 7 21 23 19 16 11 13 12 10 9 6 360 356 353 350 344 335 322 308 295 281 268 252 240 230 226 222 216 212 209 208 206 206 206 203 202 200 197 197 192 191
269 359 21 27 18 15 16 17 16 14 14 13 7 360 355 352 349 344 337 326 312 299 287 271 252 237 226 223 221 219 214 210 210 207 206 204 202 202 201 200 199 196 192
283 353 11 10 11 13 21 19 15 15 14 12 7 2 359 355 351 346 341 332 320 305 288 269 249 235 223 221 219 217 214 211 210 205 205 205 203 205 203 204 201 198 196
243 291 319 7 12 20 23 20 17 13 12 10 6 3 1 359 355 350 346 341 329 313 294 271 248 234 222 219 217 216 212 209 207 205 205 206 207 207 206 208 205 203 202
218 267 317 1 8 18 17 17 14 12 11 11 7 5 4 360 358 357 355 350 339 318 298 275 247 236 221 217 216 215 212 209 207 206 207 207 208 210 211 213 213 211 209
226 248 299 347 17 23 19 16 14 14 13 11 9 7 6 5 5 4 2 356 346 326 304 277 247 234 223 217 214 210 210 208 204 207 211 211 211 212 214 217 217 219 219
240 253 303 346 19 23 17 16 16 15 14 13 11 9 9 10 10 11 8 1 354 342 321 285 248 228 219 212 210 206 206 208 204 205 211 214 215 216 216 216 219 224 225
236 249 279 325 14 17 17 19 17 14 13 12 12 12 13 14 16 16 14 10 7 4 360 334 250 220 212 206 206 202 203 206 204 206 209 214 218 217 213 216 220 225 222
234 241 242 294 6 15 16 18 15 11 11 11 13 14 16 18 17 19 20 19 18 19 22 33 73 195 198 200 203 203 207 208 205 204 208 211 214 215 214 215 220 223 223
236 237 232 273 344 5 7 13 11 11 12 12 13 14 16 18 20 21 23 24 27 30 35 47 66 127 180 192 201 203 204 204 204 204 206 209 212 216 215 215 221 221 224
233 227 224 244 299 359 2 6 8 12 14 14 15 16 16 18 21 24 27 29 34 37 42 51 62 88 144 170 184 193 200 203 201 200 204 209 210 214 218 216 221 222 229
236 229 224 235 269 335 355 4 9 14 13 14 17 17 18 19 21 27 31 33 37 41 47 54 64 78 102 138 165 186 197 198 199 201 202 203 205 212 219 221 221 224 225
239 232 225 233 250 283 335 360 11 14 14 15 18 18 19 20 24 29 34 37 41 44 52 59 66 74 86 102 126 159 180 187 189 193 194 198 204 210 216 218 220 219 225
238 230 224 233 242 258 300 341 7 10 11 16 19 20 21 24 26 30 37 41 43 48 54 61 66 72 85 98 108 118 133 153 168 182 189 196 205 213 223 226 226 225 230
234 224 226 231 239 247 270 312 356 2 9 17 20 22 21 24 28 32 38 43 45 50 54 58 64 68 74 86 97 108 125 140 150 163 178 188 198 211 227 240 233 229 236
227 222 224 228 235 239 253 288 331 354 7 14 21 25 24 26 29 32 36 43 47 50 55 55 57 62 64 72 84 103 120 133 137 148 164 182 193 208 224 236 227 233 238
225 223 222 224 229 236 247 273 298 336 357 7 20 27 29 30 33 34 37 42 48 50 53 53 54 55 55 59 71 93 108 121 131 143 152 160 177 197 223 227 228 235 243
226 226 224 224 226 233 240 257 275 309 350 2 17 25 26 29 35 39 40 43 49 50 49 51 51 49 50 56 64 78 96 115 135 133 137 138 145 193 232 223 230 245 262
226 228 229 226 226 232 239 248 267 266 311 352 15 19 17 23 36 39 39 41 45 45 44 45 44 44 45 48 54 61 78 97 106 123 151 170 217 248 262 253 244 260 271
226 228 226 224 226 230 238 243 254 241 257 304 359 16 16 20 26 27 32 36 37 37 38 39 40 40 39 41 40 48 65 72 69 45 316 289 276 266 272 274 270 271 274